Location: ??? ????
(31.2770°N, 45.5591°E)
Time: 17:00:46
(UTC+00:00)

Daily predictions for brighter satellites

Satellite Brightness Start Highest point End
(mag) Time Altitude Azimuth Time Altitude Azimuth Time Altitude Azimuth
STARLINK-1119 4.1 15:41:03 10° NNW 15:45:03 47° NE 15:49:02 10° ESE
STARLINK-29 3.0 15:44:31 10° SSW 15:47:38 57° SE 15:50:46 10° NE
STARLINK-60 4.4 15:46:09 10° WSW 15:49:17 42° NW 15:52:24 10° NNE
STARLINK-1114 3.9 15:45:59 10° NNW 15:50:02 52° NE 15:54:05 10° ESE
CSL-04 Debris 4.2 15:45:51 10° SSE 15:51:19 81° ENE 15:56:48 10° N
Cosmos 1943 Rocket 2.4 15:46:28 10° N 15:51:54 53° ENE 15:57:21 10° SE
Delta 128 4.1 15:47:34 10° W 15:51:57 53° S 15:56:45 10° ESE
CZ-3 Stage 3 3.5 15:47:13 10° WSW 15:52:11 75° SSE 16:18:42 10° E
Orbus 7S? 4.2 15:50:58 10° WNW 15:53:08 28° SW 15:55:35 10° S
STARLINK-1130 (DARKSAT) 3.8 15:50:56 10° NW 15:55:01 59° NE 15:59:06 10° SE
Cosmos 1758 4.5 15:54:34 10° SSW 15:58:32 50° W 16:02:31 10° N
STARLINK-1084 3.7 15:55:53 10° NW 16:00:00 67° NE 16:03:58 11° SE
Cosmos 2369 Rocket 2.5 15:55:31 10° N 16:00:58 46° ENE 16:06:21 10° SE
H-2A R/B 2.8 15:56:38 10° SE 16:01:15 32° ENE 16:05:46 10° N
CZ-2C R/B 3.8 15:59:02 10° SE 16:03:13 28° ENE 16:07:18 10° NNE
SL-4 R/B 4.4 16:02:02 10° WNW 16:04:15 16° NW 16:06:26 10° N
STARLINK-1098 3.6 16:00:51 10° NW 16:04:59 75° NE 16:08:45 12° SE
ISS -3.3 16:01:49 10° NNW 16:05:04 47° NE 16:07:33 16° ESE
Cosmos 292 Rocket 3.8 16:01:22 10° N 16:06:08 61° ENE 16:10:53 10° SSE
Hubble Space Telescope 1.7 16:03:22 10° SW 16:07:01 31° SSE 16:09:41 16° ESE
Cosmos 1340 Rocket 4.2 16:04:54 10° SE 16:07:44 18° E 16:10:33 10° NE
FALCON 9 DEB 3.1 16:04:18 10° SW 16:07:47 89° NW 16:11:17 10° NE
GPS 2-04 Rocket1 4.3 16:06:00 10° SSW 16:08:52 19° SE 16:10:25 15° ESE
STARLINK-1123 3.6 16:05:51 10° NW 16:09:59 84° NE 16:13:34 14° SE
ATLAS 2AS CENTAUR R/B 4.1 16:06:45 10° N 16:12:21 22° NE 16:16:27 14° E
CZ-2C R/B 4.5 16:09:26 10° NE 16:13:31 30° E 16:17:30 10° SSE
USA 234 3.8 16:07:43 10° ENE 16:13:36 35° SE 16:19:26 10° S
STARLINK-1097 3.6 16:10:47 10° NW 16:14:56 86° SW 16:18:19 15° SE
CSL-04 Rocket 4.2 16:10:51 10° S 16:16:04 59° W 16:21:16 10° NNW
Cosmos 1943 4.1 16:12:48 10° SW 16:18:16 52° WNW 16:23:49 10° N
Cosmos 1703 4.5 16:15:45 10° NNE 16:18:56 23° ENE 16:19:55 21° E
STARLINK-1099 3.7 16:15:46 10° NW 16:19:55 77° SW 16:23:07 16° SE
CZ-4 R/B 4.0 16:18:39 10° SSW 16:21:35 21° W 16:24:31 10° NW
Cosmos 1908 3.5 16:18:38 10° SSE 16:22:17 44° E 16:25:58 10° NNE
YAOGAN 1 4.5 16:18:34 10° SSW 16:22:24 31° W 16:26:16 10° NW
Ariane Rocket 3.0 16:17:56 10° SSE 16:22:55 63° ENE 16:27:55 10° N
IRS-1A Rocket 4.4 16:18:13 10° SSE 16:23:45 61° ENE 16:29:27 10° N
STARLINK-1104 3.8 16:20:46 10° NW 16:24:52 68° SW 16:27:54 17° SSE
Cosmos 2263 4.3 16:19:57 10° N 16:25:26 54° ENE 16:29:39 17° SE
Cosmos 1140 Rocket 3.7 16:21:55 10° S 16:26:50 44° ESE 16:31:44 10° NNE
STARLINK-52 3.9 16:25:05 10° WSW 16:28:11 47° NW 16:31:18 10° NNE
STARLINK-1144 4.0 16:25:46 10° NW 16:29:50 59° SW 16:32:41 19° SSE
Cosmos 1437 2.5 16:28:18 10° N 16:31:17 57° E 16:32:15 35° SE
HJ-1C 4.5 16:29:02 10° S 16:32:15 45° W 16:35:30 10° NNW
Cosmos 1953 4.0 16:29:00 10° SSW 16:32:38 35° W 16:36:19 10° NNW
Cosmos 1190 Rocket 4.0 16:27:27 10° S 16:32:40 62° ESE 16:37:53 10° NNE
MONITOR-E 4.0 16:33:55 45° ENE 16:33:55 45° ENE 16:36:17 10° N
STARLINK-1103 4.2 16:30:45 10° NW 16:34:46 52° SW 16:37:26 20° SSE
Cosmos 2184 Rocket 3.9 16:28:42 10° N 16:34:55 65° E 16:41:02 10° SSE
Cosmos 1656 Rocket 4.1 16:30:10 10° N 16:35:28 41° ENE 16:37:56 27° ESE
IRIDIUM 104 4.3 16:31:06 10° N 16:36:20 88° E 16:41:33 10° S
Cosmos 1726 3.5 16:35:06 10° SSW 16:38:38 40° W 16:42:10 10° N
Cosmos 614 Rocket 4.2 16:34:16 10° SSW 16:39:28 75° WNW 16:44:42 10° NNE
STARLINK-1101 4.4 16:35:48 10° NW 16:39:45 46° SW 16:42:15 20° SSE
Cosmos 2058 Rocket 3.3 16:35:44 12° SSE 16:39:46 46° E 16:44:05 10° NNE
ARGOS 3.1 16:35:51 13° SSE 16:40:37 67° ENE 16:45:58 10° N
CZ-2C R/B 2.9 16:38:20 10° NNE 16:43:11 39° E 16:46:03 22° SSE
DMSP B5D2-2 4.2 16:38:43 10° NNE 16:43:46 48° E 16:48:48 10° S
Aureole 2 Rocket 4.5 16:43:38 10° NW 16:46:31 26° W 16:49:18 10° SSW
Nadezhda 1 Rocket 4.0 16:40:20 10° S 16:46:43 82° E 16:53:06 10° N
Cosmos 1726 Rocket 3.6 16:43:40 10° S 16:48:02 80° W 16:52:29 10° N
Resurs 01 Rocket 3.2 16:53:22 20° NE 16:53:22 20° NE 16:55:41 10° NNE
FREGAT/IRIS 3.2 16:54:24 47° WSW 16:54:33 47° W 16:57:12 10° NNW
Meteor 2-17 Rocket 4.5 16:48:44 10° N 16:54:47 57° E 16:57:39 31° SSE
BREEZE-M DEB (TANK) 3.0 16:50:33 10° WNW 16:55:20 36° SW 16:55:57 32° SSW
GEOS 3 Rocket 3.6 16:53:40 27° SSE 16:56:29 76° WSW 17:01:41 10° NW
SL-24 R/B 3.7 16:53:12 10° N 16:57:03 82° WNW 16:59:50 17° SSW
Cosmos 2154 Rocket 4.0 16:51:17 10° N 16:57:33 62° E 17:00:48 29° SSE
Cosmos 407 Rocket 4.1 16:55:26 10° SSW 17:00:29 55° WNW 17:05:31 10° N
Cosmos 676 Rocket 3.9 16:56:09 10° S 17:01:24 67° ESE 17:06:38 10° NNE
USA 186 3.0 17:00:58 27° SSW 17:02:22 42° W 17:05:31 10° NNW
Cosmos 1825 Rocket 4.0 16:59:01 10° NNW 17:03:19 61° W 17:05:59 22° SSW
APEX 4.4 16:57:56 10° N 17:03:39 43° ENE 17:04:04 42° ENE
SPOT 3 Rocket 3.5 17:03:14 47° SE 17:04:32 63° ENE 17:09:41 10° N
ATLAS 5 CENTAUR R/B 3.6 17:11:55 10° WSW 17:15:21 26° NW 17:19:02 10° N
SJ-6B 3.7 17:15:00 36° SSW 17:16:16 50° W 17:20:17 10° NNW
Cosmos 1461 4.5 17:16:17 10° N 17:19:11 28° NNE 17:19:11 28° NNE
BREEZE M DEB (TANK) 4.1 17:18:54 10° W 17:21:28 30° NNW 17:26:51 10° NE
SEDSat Delta rocket 3.7 17:17:37 10° W 17:22:04 47° SW 17:22:04 47° SW
Cosmos 1954 Rocket 4.1 17:19:19 10° SSW 17:24:33 74° WNW 17:29:48 10° NNE
Cosmos 1953 Rocket 4.3 17:20:38 10° NNW 17:24:59 52° W 17:25:59 43° SW
NOSS 3-4 (A) 3.9 17:24:29 10° NNW 17:31:46 68° ENE 17:33:06 58° ESE
NOSS 3-4 (C) 3.9 17:24:36 10° NNW 17:31:52 68° ENE 17:33:11 58° ESE
SL-8 R/B 4.1 17:28:33 10° NW 17:32:43 58° WSW 17:32:43 58° WSW
H-2A R/B 4.1 17:36:28 10° SSW 17:40:36 23° W 17:44:40 10° NW
Hubble Space Telescope 3.2 17:43:55 10° WSW 17:45:02 18° WSW 17:45:02 18° WSW
BREEZE-M DEB (TANK) 4.3 17:31:01 10° NW 17:53:27 77° SW 17:54:29 67° S
USA 234 3.9 17:50:19 10° NNE 17:56:36 52° NW 18:02:53 10° WSW
ATLAS 2AS CENTAUR R/B 2.8 17:56:43 10° NW 18:03:54 68° WSW 18:03:54 68° WSW
ATLAS 5 CENTAUR R/B 3.8 18:07:28 10° WSW 18:50:35 10° ESE 18:50:45 10° ESE
COSMOS 2455 3.9 18:18:13 10° NNW 18:22:02 41° NW 18:22:02 41° NW
Resurs 01 Rocket 4.4 18:30:56 16° NW 18:30:56 16° NW 18:32:08 10° NW
CENTAUR R/B 4.1 23:11:49 28° ENE 23:11:49 28° ENE 23:15:07 10° NE
Cosmos 2227 Rocket 4.1 23:20:42 25° NNE 23:20:42 25° NNE 23:22:56 10° NNE
ADEOS II 4.2 23:25:40 10° N 23:27:15 20° N 23:27:15 20° N
NOSS 3-2 (C) 4.4 23:38:28 39° NNE 23:38:28 39° NNE 23:42:17 10° NNE
IDEFIX/ARIANE 42P 4.0 23:40:05 10° NNE 23:44:00 33° ENE 23:44:00 33° ENE
ARIANE 5 R/B 4.2 23:48:15 10° N 23:50:40 28° N 23:50:40 28° N
